Charlottesville, VA

2:14 AM EST on January 22, 2018 (GMT -0500)
Charlottesville-Albemarle

Weather History for KCHO - December, 2013

Change the Weather History Date:

Thursday, December 5, 2013

  Actual Average Record
Temperature  
Mean Temperature 58 °F 40 °F  
Max Temperature 65 °F 50 °F 78 °F (2001)
Min Temperature 51 °F 31 °F 15 °F (1966)
Degree Days  
Heating Degree Days 7 25  
Month to date heating degree days 91 120  
Since 1 July heating degree days 1034 1011  
Cooling Degree Days 0 0  
Month to date cooling degree days 0 0  
Year to date cooling degree days 1146 1035  
Growing Degree Days 8 (Base 50)    
Moisture  
Dew Point 56 °F    
Average Humidity 89    
Maximum Humidity 100    
Minimum Humidity 78    
Precipitation  
Precipitation T in 0.12 in 0.62 in (2003)
Month to date precipitation T 0.62  
Year to date precipitation 40.56 40.18  
Sea Level Pressure  
Sea Level Pressure 30.01 in    
Wind  
Wind Speed 9 mph (SSW)    
Max Wind Speed 18 mph    
Max Gust Speed 23 mph    
Visibility 6 miles    
Events Fog    
T = Trace of Precipitation, MM = Missing Value Source: NWS Daily Summary

Daily Weather History Graph

Daily Weather History Graph

Search for Another Location

Airport or City:

Trip Planner

Search our weather history database for the weather conditions in past years. The results will help you decide how hot, cold, wet, or windy it might be!

Date:

Astronomy

Dec. 05, 2013 Rise Set
Actual Time 7:15 AM EST 4:53 PM EST
Civil Twilight 6:46 AM EST 5:22 PM EST
Nautical Twilight 6:13 AM EST 5:55 PM EST
Astronomical Twilight 5:41 AM EST 6:27 PM EST
Moon 9:35 AM EST (12/5) 8:10 PM EST (12/5)
Length of Visible Light 10h 36m
Length of Day
9h 38m
Waxing Crescent, 10% of the Moon is Illuminated
Dec 5
Waxing Crescent
Dec 9
First Quarter
Dec 17
Full
Dec 25
Last Quarter
Jan 1
New

Hourly Weather History & Observations

Time (EST) Temp. Dew Point Humidity Pressure Visibility Wind Dir Wind Speed Gust Speed Precip Events Conditions
12:11 AM 54.0 °F 51.1 °F 90% 30.06 in 7.0 mi South 3.5 mph - N/A   Overcast
12:53 AM 54.0 °F 51.1 °F 90% 30.05 in 6.0 mi Calm Calm - N/A   Overcast
1:53 AM 54.0 °F 51.1 °F 90% 30.04 in 6.0 mi South 3.5 mph - N/A   Overcast
2:53 AM 52.0 °F 50.0 °F 93% 30.04 in 7.0 mi Calm Calm - N/A   Overcast
3:28 AM 53.1 °F 50.0 °F 89% 30.05 in 6.0 mi Calm Calm - N/A   Overcast
3:53 AM 53.1 °F 50.0 °F 89% 30.04 in 5.0 mi SSW 3.5 mph - N/A   Overcast
4:33 AM 53.1 °F 52.0 °F 96% 30.04 in 1.8 mi Calm Calm - N/A   Overcast
4:44 AM 53.1 °F 53.1 °F 100% 30.03 in 0.5 mi Calm Calm - N/A Fog Fog
4:53 AM 53.1 °F 52.0 °F 96% 30.03 in 0.5 mi SSW 3.5 mph - N/A Fog Fog
5:53 AM 53.1 °F 52.0 °F 96% 30.04 in 0.2 mi SSW 4.6 mph - N/A Fog Fog
6:53 AM 53.1 °F 52.0 °F 96% 30.04 in 0.2 mi South 5.8 mph - N/A Fog Fog
7:53 AM 53.1 °F 52.0 °F 96% 30.05 in 0.5 mi Calm Calm - N/A Fog Fog
8:34 AM 54.0 °F 53.1 °F 97% 30.07 in 1.0 mi Calm Calm - N/A   Overcast
8:53 AM 54.0 °F 53.1 °F 97% 30.07 in 1.2 mi Calm Calm - N/A   Overcast
9:27 AM 55.0 °F 54.0 °F 96% 30.07 in 2.5 mi Calm Calm - N/A   Overcast
9:33 AM 55.9 °F 54.0 °F 93% 30.07 in 3.0 mi SSW 3.5 mph - N/A   Overcast
9:53 AM 57.9 °F 55.0 °F 90% 30.06 in 2.0 mi SSW 5.8 mph - N/A   Overcast
10:29 AM 60.1 °F 55.0 °F 83% 30.06 in 4.0 mi SSW 11.5 mph - N/A   Haze
10:36 AM 61.0 °F 55.9 °F 83% 30.06 in 4.0 mi SSW 11.5 mph - N/A   Haze
10:53 AM 63.0 °F 55.9 °F 78% 30.03 in 9.0 mi South 15.0 mph - N/A   Mostly Cloudy
11:53 AM 63.0 °F 57.0 °F 81% 30.01 in 5.0 mi South 12.7 mph 20.7 mph N/A   Haze
11:55 AM 63.0 °F 57.0 °F 81% 30.01 in 8.0 mi SSW 17.3 mph - N/A   Mostly Cloudy
12:03 PM 63.0 °F 57.0 °F 81% 30.01 in 8.0 mi South 12.7 mph 23.0 mph N/A   Mostly Cloudy
12:53 PM 61.0 °F 57.9 °F 90% 29.99 in 4.0 mi SSW 15.0 mph 20.7 mph N/A   Overcast
1:21 PM 62.1 °F 57.9 °F 86% 29.99 in 4.0 mi SSW 15.0 mph - N/A   Overcast
1:38 PM 62.1 °F 57.9 °F 86% 29.99 in 4.0 mi SSW 15.0 mph - N/A   Overcast
1:53 PM 63.0 °F 57.9 °F 84% 29.98 in 4.0 mi South 13.8 mph - N/A   Haze
2:53 PM 63.0 °F 57.9 °F 84% 29.97 in 5.0 mi SSW 15.0 mph - N/A   Haze
3:00 PM 62.1 °F 57.9 °F 86% 29.98 in 10.0 mi SSW 12.7 mph - N/A   Overcast
3:30 PM 63.0 °F 57.9 °F 84% 29.98 in 10.0 mi SSW 11.5 mph - N/A   Scattered Clouds
3:53 PM 63.0 °F 57.9 °F 84% 29.97 in 10.0 mi SSW 11.5 mph - N/A   Scattered Clouds
4:02 PM 63.0 °F 57.9 °F 84% 29.98 in 10.0 mi SSW 12.7 mph - N/A   Mostly Cloudy
4:53 PM 62.1 °F 57.0 °F 84% 29.97 in 10.0 mi SSW 12.7 mph - N/A   Mostly Cloudy
5:00 PM 62.1 °F 57.9 °F 86% 29.98 in 10.0 mi SSW 12.7 mph - N/A   Partly Cloudy
5:53 PM 61.0 °F 57.0 °F 87% 29.98 in 10.0 mi SSW 9.2 mph - N/A   Partly Cloudy
6:06 PM 62.1 °F 57.9 °F 86% 29.99 in 10.0 mi South 9.2 mph - N/A   Mostly Cloudy
6:53 PM 63.0 °F 59.0 °F 87% 29.99 in 10.0 mi South 10.4 mph - N/A   Overcast
7:53 PM 63.0 °F 59.0 °F 87% 29.97 in 10.0 mi South 10.4 mph - N/A   Mostly Cloudy
8:01 PM 63.0 °F 59.0 °F 87% 29.98 in 10.0 mi South 10.4 mph - N/A   Scattered Clouds
8:15 PM 63.0 °F 60.1 °F 90% 29.98 in 10.0 mi South 13.8 mph - N/A   Mostly Cloudy
8:53 PM 64.0 °F 60.1 °F 87% 29.96 in 10.0 mi South 11.5 mph - N/A   Overcast
9:29 PM 64.0 °F 60.1 °F 87% 29.97 in 10.0 mi SSW 15.0 mph - N/A   Overcast
9:53 PM 64.0 °F 60.1 °F 87% 29.96 in 10.0 mi SSW 12.7 mph - N/A   Overcast
10:53 PM 64.0 °F 61.0 °F 90% 29.94 in 10.0 mi South 13.8 mph - 0.00 in   Overcast
11:28 PM 64.9 °F 61.0 °F 87% 29.95 in 10.0 mi SSW 12.7 mph 21.9 mph N/A   Overcast
11:37 PM 64.9 °F 61.0 °F 87% 29.95 in 10.0 mi SSW 11.5 mph - N/A   Overcast
11:53 PM 64.9 °F 61.0 °F 87% 29.94 in 10.0 mi SSW 13.8 mph - N/A   Overcast